30.06.2024;16:00;8
30.06.2024;15:00;7
30.06.2024;14:00;9
30.06.2024;13:00;11
30.06.2024;12:00;9
30.06.2024;11:00;9
30.06.2024;10:00;13
30.06.2024;09:00;13
30.06.2024;08:00;13
30.06.2024;07:00;13
30.06.2024;06:00;18
30.06.2024;05:00;24
30.06.2024;04:00;30
30.06.2024;03:00;31
30.06.2024;02:00;56
30.06.2024;01:00;53
29.06.2024;24:00;50
29.06.2024;23:00;41
29.06.2024;22:00;24
29.06.2024;21:00;27
29.06.2024;20:00;23
29.06.2024;19:00;23
29.06.2024;18:00;26
29.06.2024;17:00;27
29.06.2024;16:00;26
29.06.2024;15:00;23
29.06.2024;14:00;20
29.06.2024;13:00;17
29.06.2024;12:00;18
29.06.2024;11:00;21
29.06.2024;10:00;23
29.06.2024;09:00;19
29.06.2024;08:00;19
29.06.2024;07:00;22
29.06.2024;06:00;26
29.06.2024;05:00;26
29.06.2024;04:00;21
29.06.2024;03:00;17
29.06.2024;02:00;19
29.06.2024;01:00;22
28.06.2024;24:00;27
28.06.2024;23:00;23
28.06.2024;22:00;20
28.06.2024;21:00;20
28.06.2024;20:00;16
28.06.2024;19:00;13
28.06.2024;18:00;13
28.06.2024;17:00;15
28.06.2024;16:00;16
28.06.2024;15:00;18
28.06.2024;14:00;18
28.06.2024;13:00;16
28.06.2024;12:00;15
28.06.2024;11:00;14
28.06.2024;10:00;16
28.06.2024;09:00;11
28.06.2024;08:00;15
28.06.2024;07:00;19
28.06.2024;06:00;21
28.06.2024;05:00;19
28.06.2024;04:00;18
28.06.2024;03:00;18
28.06.2024;02:00;19
28.06.2024;01:00;16
27.06.2024;24:00;12
27.06.2024;23:00;14
27.06.2024;22:00;14
27.06.2024;21:00;19
27.06.2024;20:00;21
27.06.2024;19:00;21
27.06.2024;18:00;17
27.06.2024;17:00;16
27.06.2024;16:00;15
27.06.2024;15:00;22
27.06.2024;14:00;15
27.06.2024;13:00;16
27.06.2024;12:00;19
27.06.2024;11:00;17
27.06.2024;10:00;14
27.06.2024;09:00;16
27.06.2024;08:00;20
27.06.2024;07:00;16
27.06.2024;06:00;15
27.06.2024;05:00;14
27.06.2024;04:00;13
27.06.2024;03:00;12
27.06.2024;02:00;11
27.06.2024;01:00;10
26.06.2024;24:00;9
26.06.2024;23:00;15
26.06.2024;22:00;21
26.06.2024;21:00;20
26.06.2024;20:00;19
26.06.2024;19:00;16
26.06.2024;18:00;17
26.06.2024;17:00;21
26.06.2024;16:00;19
26.06.2024;15:00;17
26.06.2024;14:00;23
26.06.2024;13:00;20
26.06.2024;12:00;31
26.06.2024;11:00;25
26.06.2024;10:00;21
26.06.2024;09:00;21
26.06.2024;08:00;23
26.06.2024;07:00;23
26.06.2024;06:00;20
26.06.2024;05:00;20
26.06.2024;04:00;21
26.06.2024;03:00;20
26.06.2024;02:00;20
26.06.2024;01:00;21
25.06.2024;24:00;21
25.06.2024;23:00;21
25.06.2024;22:00;20
25.06.2024;21:00;19
25.06.2024;20:00;18
25.06.2024;19:00;18
25.06.2024;18:00;18
25.06.2024;17:00;18
25.06.2024;16:00;16
25.06.2024;15:00;15
25.06.2024;14:00;14
25.06.2024;13:00;12
25.06.2024;12:00;13
25.06.2024;11:00;13
25.06.2024;10:00;13
25.06.2024;09:00;12
25.06.2024;08:00;12
25.06.2024;07:00;12
25.06.2024;06:00;12
25.06.2024;05:00;12
25.06.2024;04:00;12
25.06.2024;03:00;13
25.06.2024;02:00;13
25.06.2024;01:00;12
